Location: Nelson
(41.2830°S, 173.2830°E)
Time: 16:30:50
(UTC+12:00)

IRAS Rocket - Pass Details

Date: 24 January 2019
Orbit: 847 x 878 km, 100.0° (Epoch: 18 April)

Event Time Altitude Azimuth Distance (km) Brightness Sun altitude
Rises 23:30:12 0° 166° (SSE) 3,489 8.0 -22.5°
Reaches altitude 10° 23:32:37 10° 165° (SSE) 2,540 7.2 -22.8°
Maximum altitude 23:38:16 87° 254° (WSW) 876 4.2 -23.4°
Enters shadow 23:40:21 41° 340° (NNW) 1,239 4.7 -23.6°
